Regional Weather Roundup
Issued by NWS

Home | Current Version | Previous Version | Graphics & Text | Print | Product List | Glossary On
Versions: 1 2 3 4 5 6 7 8 9 10 11 12 13 14 15 16 17 18 19 20 21 22 23 24 25 26 27 28 29 30 31 32 33 34 35 36 37 38 39 40 41 42 43 44 45 46 47 48 49 50
000
ASUS45 KPSR 251510
RWRAZ

ARIZONA HOURLY REGIONAL WEATHER ROUNDUP
NATIONAL WEATHER SERVICE PHOENIX AZ
800 AM MST WED APR 25 2018

NOTE: FAIR INDICATES FEW OR NO CLOUDS BELOW 12,000 FEET WITH NO
SIGNIFICANT WEATHER AND/OR OBSTRUCTIONS TO VISIBILITY.

AZZ001>003-036-251600-
NORTHWEST ARIZONA

CITY           SKY/WX    TMP DP  RH WIND       PRES   REMARKS
BULLHEAD CITY  SUNNY     81  21  11 N18       29.95R
KINGMAN        SUNNY     70  21  15 N7        30.11R
$$

AZZ004>008-015-016-018-251600-
NORTH CENTRAL ARIZONA

CITY           SKY/WX    TMP DP  RH WIND       PRES   REMARKS
GRAND CANYON   SUNNY     57  15  19 NE16G22   30.30R
WILLIAMS       SUNNY     61  16  17 SE8       30.26R
PRESCOTT       SUNNY     63  24  22 CALM      30.20R
FLAGSTAFF      SUNNY     55  18  23 NE14      30.31R
PAYSON         SUNNY     66  16  14 NE9G16    30.19S
PAGE           SUNNY     62  20  19 NE9       30.25R
$$

AZZ009>014-017-251600-
NORTHEAST ARIZONA

CITY           SKY/WX    TMP DP  RH WIND       PRES   REMARKS
WINSLOW        SUNNY     61  17  18 NW7       30.25R
SAINT JOHNS    SUNNY     54  18  24 NW3       30.23R
WINDOW ROCK    SUNNY     56  13  18 N3        30.28S
SHOW LOW       SUNNY     54  16  22 NW5       30.29R
$$

AZZ540-542>544-546-548-251600-
GREATER PHOENIX AREA

CITY           SKY/WX    TMP DP  RH WIND       PRES   REMARKS
PHOENIX        MOSUNNY   76  29  17 SE6       29.96R
BUCKEYE        SUNNY     79  27  14 SE3       29.98R
GLENDALE       SUNNY     75  32  20 CALM      29.99R
DEER VALLEY    SUNNY     77  28  16 N5        29.98R
SCOTTSDALE     SUNNY     77  38  24 CALM      29.99R
MESA-FALCON    MOSUNNY   77  27  15 NE5       29.99R
MESA-GATEWAY   SUNNY     75  30  19 SE5       30.00R
CHANDLER       SUNNY     73  30  20 CALM      29.98R
$$

AZZ539-553-251600-
SOUTHWEST MARICOPA COUNTY AND PINAL COUNTY

CITY           SKY/WX    TMP DP  RH WIND       PRES   REMARKS
CASA GRANDE    SUNNY     74  28  18 CALM      30.00R
GILA BEND      SUNNY     77  24  14 CALM      29.95R
$$

AZZ503-504-507>509-251600-
SOUTHEAST ARIZONA

CITY           SKY/WX    TMP DP  RH WIND       PRES   REMARKS
TUCSON         SUNNY     72  24  16 S5        30.07R
DAVIS-MONTHAN  SUNNY     73  24  16 SE3       30.05
RYAN FIELD     SUNNY     70  25  18 CALM      30.07R
NOGALES        SUNNY     71  25  17 CALM      30.13R
SIERRA VISTA   SUNNY     73  19  13 SE5       30.18R
DOUGLAS        MOSUNNY   70  19  14 CALM      30.15R
SAFFORD        SUNNY     72  16  12 CALM      30.07R
$$

AZZ532-251600-
SOUTHWEST ARIZONA

CITY           SKY/WX    TMP DP  RH WIND       PRES   REMARKS
YUMA           SUNNY     75  33  21 CALM      29.93R
$$

CAZ041-043-047-048-061-525>527-560>570-251600-
SOUTHERN CALIFORNIA

CITY           SKY/WX    TMP DP  RH WIND       PRES   REMARKS
DOWNTOWN L.A.  CLOUDY    59  52  77 VRB3      30.07R HAZE
L.A. AIRPORT   PTSUNNY   58  51  78 E3        30.08R HAZE
SAN DIEGO      MOSUNNY   59  52  77 CALM      30.09R
BURBANK        MOSUNNY   55  53  93 S3        30.07R HAZE
ONTARIO        MOSUNNY   58  50  75 CALM      30.07R HAZE
RIVERSIDE      MOSUNNY   57  50  77 NE3       30.07R
PALM SPRINGS   SUNNY     75  35  23 S3        29.95R
EL CENTRO NAS  MOSUNNY   75  34  22 SW3       29.93R
IMPERIAL       SUNNY     75  33  21 SW3       29.91R
BLYTHE         SUNNY     75  35  23 CALM      29.93R
NEEDLES        SUNNY     82  22  11 N5        29.97R
$$

NVZ020-UTZ003-251600-
SOUTHERN NEVADA-UTAH

CITY           SKY/WX    TMP DP  RH WIND       PRES   REMARKS
LAS VEGAS      MOSUNNY   74  24  15 E8        30.07R
SALT LAKE CITY MOSUNNY   55  26  32 SE12      30.26S
$$

NMZ009-TXZ055-251600-
NEW MEXICO-WEST TEXAS

CITY           SKY/WX    TMP DP  RH WIND       PRES   REMARKS
ALBUQUERQUE    MOSUNNY   51  33  50 E16       30.30R
EL PASO        CLOUDY    57  38  48 E20G28    30.21R
$$


........................KEY........................
SKY/WX - SKY CONDITION/WEATHER
TMP    - TEMPERATURE IN FAHRENHEIT
DP     - DEW POINT IN FAHRENHEIT
RH     - RELATIVE HUMIDITY IN PERCENT
WIND   - DIRECTION AND SPEED IN MILES PER HOUR (MPH)
VRB    - VARIABLE WIND DIRECTION
PRES   - MEAN SEA LEVEL PRESSURE IN INCHES OF MERCURY
         F - FALLING PRESSURE   R - RISING PRESSURE
         S - STEADY PRESSURE
VSB    - VISIBILITY IN MILES
HX     - HEAT INDEX IN FAHRENHEIT
WCI    - WIND CHILL INDEX IN FAHRENHEIT
TC     - TEMPERATURE IN CELSIUS WHICH IS ALSO KNOWN AS
         TEMPERATURE IN CENTIGRADE
AFB    - AIR FORCE BASE
         LUKE AFB IS LUKE AIR FORCE BASE
         DAVIS-MONTHAN IS DAVIS-MONTHAN AIR FORCE BASE
NAS    - NAVAL AIR STATION
         EL CENTRO NAS IS EL CENTRO NAVAL AIR STATION
N/A    - NOT AVAILABLE




USA.gov is the U.S. government's official web portal to all federal, state and local government web resources and services.